Location: Wells
(51.2093°N, 2.6446°W)
Time: 06:35:44
(UTC+01:00)

ITUPSAT 1 - Pass Details

Date: 22 March 2026
Orbit: 686 x 698 km, 98.4° (Epoch: 15 April)

Event Time Altitude Azimuth Distance (km) Brightness Sun altitude
Rises 23:53:22 0° 14° (NNE) 3,072 ? -37.6°
Reaches altitude 10° 23:55:37 10° 15° (NNE) 2,149 ? -37.6°
Enters shadow 23:56:44 17° 15° (NNE) 1,700 ? -37.7°
